Regional Weather Roundup
Issued by NWS

Home | Current Version | Previous Version | Graphics & Text | Print | Product List | Glossary On
Versions: 1 2 3 4 5 6 7 8 9 10 11 12 13 14 15 16 17 18 19 20 21 22 23 24 25 26 27
000
ASUS45 KPSR 051210
RWRAZ

ARIZONA HOURLY REGIONAL WEATHER ROUNDUP
NATIONAL WEATHER SERVICE PHOENIX AZ
500 AM MST THU MAY 05 2016

NOTE: FAIR INDICATES FEW OR NO CLOUDS BELOW 12,000 FEET WITH NO
SIGNIFICANT WEATHER AND/OR OBSTRUCTIONS TO VISIBILITY.

AZZ001>003-036-051300-
NORTHWEST ARIZONA

CITY           SKY/WX    TMP DP  RH WIND       PRES   REMARKS
BULLHEAD CITY  CLEAR     73  32  21 SW9       29.76R
KINGMAN        CLEAR     59  20  22 SE8       29.88S
6HR MIN TEMP:  56; 6HR MAX TEMP:  73;

$$

AZZ004>008-015-016-018-051300-
NORTH CENTRAL ARIZONA

CITY           SKY/WX    TMP DP  RH WIND       PRES   REMARKS
GRAND CANYON   PTCLDY    38  30  73 CALM      30.09F
6HR MIN TEMP:  36; 6HR MAX TEMP:  44;

WILLIAMS       PTCLDY    45  23  42 SE6       30.15F
PRESCOTT       PTCLDY    52  27  38 SW3       30.00F
6HR MIN TEMP:  52; 6HR MAX TEMP:  63;

FLAGSTAFF      MOCLDY    34  28  79 CALM      30.12F
6HR MIN TEMP:  34; 6HR MAX TEMP:  43;

PAYSON         PTCLDY    61  23  23 E5        30.05F
PAGE           MOCLDY    60  29  30 CALM      29.97S
6HR MIN TEMP:  59; 6HR MAX TEMP:  73;

$$

AZZ009>014-017-051300-
NORTHEAST ARIZONA

CITY           SKY/WX    TMP DP  RH WIND       PRES   REMARKS
WINSLOW        MOCLDY    55  33  43 VRB5      30.05S
6HR MIN TEMP:  55; 6HR MAX TEMP:  61;

SAINT JOHNS    CLEAR     54  26  34 E3        30.12R
6HR MIN TEMP:  54; 6HR MAX TEMP:  64;

WINDOW ROCK    CLEAR     39  33  79 CALM      30.21F
6HR MIN TEMP:  38; 6HR MAX TEMP:  51;

SHOW LOW       CLEAR     45  25  45 CALM      30.16F
$$

AZZ023-051300-
GREATER PHOENIX AREA

CITY           SKY/WX    TMP DP  RH WIND       PRES   REMARKS
PHOENIX        PTCLDY    76  21  12 E8        29.79S
6HR MIN TEMP:  74; 6HR MAX TEMP:  86;

BUCKEYE        PTCLDY    64  23  20 NE6       29.82S
LUKE AFB       PTCLDY    62  41  45 N8        29.79S
6HR MIN TEMP:  62; 6HR MAX TEMP:  82;

DEER VALLEY    PTCLDY    72  28  19 E6        29.82S
6HR MIN TEMP:  66; 6HR MAX TEMP:  80;

SCOTTSDALE     CLEAR     72  28  19 E3        29.84S
6HR MIN TEMP:  70; 6HR MAX TEMP:  83;

MESA-GATEWAY   PTCLDY    68  27  21 E8        29.84F
$$

AZZ027-028-051300-
SOUTHWEST MARICOPA COUNTY AND PINAL COUNTY

CITY           SKY/WX    TMP DP  RH WIND       PRES   REMARKS
CASA GRANDE    PTCLDY    64  23  20 CALM      29.84F
6HR MIN TEMP:  63; 6HR MAX TEMP:  75;

GILA BEND      FAIR      69  25  19 SE9       29.79R
6HR MIN TEMP:  69; 6HR MAX TEMP:  77;

$$

AZZ503-504-507>509-051300-
SOUTHEAST ARIZONA

CITY           SKY/WX    TMP DP  RH WIND       PRES   REMARKS
TUCSON         CLEAR     64  31  28 SE6       29.94R
6HR MIN TEMP:  62; 6HR MAX TEMP:  80;

DAVIS-MONTHAN  CLEAR     62  31  30 SE9       29.92S
6HR MIN TEMP:  62; 6HR MAX TEMP:  76;

NOGALES        CLEAR     54  30  40 E3        30.01R
6HR MIN TEMP:  54; 6HR MAX TEMP:  65;

SIERRA VISTA   CLEAR     62  27  26 SW1       30.04S
6HR MIN TEMP:  56; 6HR MAX TEMP:  69;

DOUGLAS        CLEAR     61  25  25 E7        30.02R
6HR MIN TEMP:  59; 6HR MAX TEMP:  76;

SAFFORD        CLEAR     74  22  14 E15G25    29.95S
6HR MIN TEMP:  68; 6HR MAX TEMP:  75;

$$

AZZ020-021-025-026-031-051300-
SOUTHWEST ARIZONA

CITY           SKY/WX    TMP DP  RH WIND       PRES   REMARKS
YUMA           PTCLDY    71  47  42 SE10      29.75R
6HR MIN TEMP:  71; 6HR MAX TEMP:  77;

$$

CAZ031-033-041-043-047-048-061-051300-
SOUTHERN CALIFORNIA

CITY           SKY/WX    TMP DP  RH WIND       PRES   REMARKS
DOWNTOWN L.A.  CLOUDY    60  52  74 CALM      29.91S
6HR MIN TEMP:  59; 6HR MAX TEMP:  61;

L.A. AIRPORT   CLOUDY    61  52  72 CALM      29.90F
6HR MIN TEMP:  59; 6HR MAX TEMP:  60;

SAN DIEGO      CLOUDY    62  51  67 CALM      29.93S
6HR MIN TEMP:  61; 6HR MAX TEMP:  62;

BURBANK        CLOUDY    57  49  74 S3        29.90S
6HR MIN TEMP:  57; 6HR MAX TEMP:  58;

ONTARIO        DRIZZLE   56  52  86 NW6       29.90F FOG
6HR MIN TEMP:  55; 6HR MAX TEMP:  58; 6HR PCP: TRACE;

RIVERSIDE      CLOUDY    57  53  86 W3        29.91S
6HR MIN TEMP:  56; 6HR MAX TEMP:  58; 6HR PCP: TRACE;

PALM SPRINGS   CLEAR     66  46  48 W8        29.75R
6HR MIN TEMP:  66; 6HR MAX TEMP:  74;

EL CENTRO NAS  CLEAR    N/A N/A N/A W18       29.77R
                                      6HR PCP: TRACE;

IMPERIAL       CLEAR     66  46  48 W12       29.73R
6HR MIN TEMP:  66; 6HR MAX TEMP:  80;

BLYTHE         CLEAR     69  41  36 S6        29.75R
6HR MIN TEMP:  69; 6HR MAX TEMP:  82;

NEEDLES        CLEAR     74  38  27 SW7       29.76R
6HR MIN TEMP:  73; 6HR MAX TEMP:  87;

$$

NVZ020-UTZ003-051300-
SOUTHERN NEVADA-UTAH

CITY           SKY/WX    TMP DP  RH WIND       PRES   REMARKS
LAS VEGAS      MOCLDY    70  34  26 S5        29.73R
6HR MIN TEMP:  69; 6HR MAX TEMP:  80;

SALT LAKE CITY CLOUDY    65  34  31 SE12      29.93S
6HR MIN TEMP:  64; 6HR MAX TEMP:  67;

$$

NMZ009-TXZ055-051300-
NEW MEXICO-WEST TEXAS

CITY           SKY/WX    TMP DP  RH WIND       PRES   REMARKS
ALBUQUERQUE    CLEAR     54  24  31 N10       30.19S
6HR MIN TEMP:  54; 6HR MAX TEMP:  63;

EL PASO        MOCLDY    65  22  19 NE7       30.10S
6HR MIN TEMP:  65; 6HR MAX TEMP:  70;

$$


........................KEY........................
SKY/WX - SKY CONDITION/WEATHER
TMP    - TEMPERATURE IN FAHRENHEIT
DP     - DEW POINT IN FAHRENHEIT
RH     - RELATIVE HUMIDITY IN PERCENT
WIND   - DIRECTION AND SPEED IN MILES PER HOUR (MPH)
VRB    - VARIABLE WIND DIRECTION
PRES   - MEAN SEA LEVEL PRESSURE IN INCHES OF MERCURY
         F - FALLING PRESSURE   R - RISING PRESSURE
         S - STEADY PRESSURE
VSB    - VISIBILITY IN MILES
HX     - HEAT INDEX IN FAHRENHEIT
WCI    - WIND CHILL INDEX IN FAHRENHEIT
TC     - TEMPERATURE IN CELSIUS WHICH IS ALSO KNOWN AS
         TEMPERATURE IN CENTIGRADE
AFB    - AIR FORCE BASE
         LUKE AFB IS LUKE AIR FORCE BASE
         DAVIS-MONTHAN IS DAVIS-MONTHAN AIR FORCE BASE
NAS    - NAVAL AIR STATION
         EL CENTRO NAS IS EL CENTRO NAVAL AIR STATION
N/A    - NOT AVAILABLE





USA.gov is the U.S. government's official web portal to all federal, state and local government web resources and services.